User: anonymous   Login
Location: Newark
(46.9000°N, 28.3500°E)
Time: 21:41:23
(UTC+00:00)
Language:

Vanguard 1 Rocket - Orbit

View from above orbital plane
View from above orbital plane
View from above satellite
View from above satellite

Ground track
Ground track

The orbit data is extracted from the following two-line orbital elements,

1    16U 58002A   19236.48977211 -.00000058  00000-0 -51598-4 0  9999
2    16  34.2626 295.0087 2026295  61.4248 317.5217 10.48745574427547
Epoch (UTC): 24 August 2019 11:45:16
Eccentricity: 0.2026295
inclination: 34.2626°
perigee height: 652 km
apogee height: 4224 km
right ascension of ascending node: 295.0087°
argument of perigee: 61.4248°
revolutions per day: 10.48745574
mean anomaly at epoch: 317.5217°
orbit number at epoch: 42754

The dashed part of the orbit path shows where the satellite is in the earth's shadow,  

DLR